Regional Weather Roundup
Issued by NWS

Home | Current Version | Previous Version | Graphics & Text | Print | Product List | Glossary On
Versions: 1 2 3 4 5 6 7 8 9 10 11 12 13 14 15 16 17 18 19 20 21 22 23 24 25 26 27 28 29 30 31 32 33 34 35 36 37 38 39 40 41 42 43 44 45 46 47 48 49 50
000
ASUS45 KTFX 311704
RWRMT
MONTANA HOURLY WEATHER ROUNDUP
NATIONAL WEATHER SERVICE GREAT FALLS MT
1104 AM MDT THU JUL 31 2014

NOTE: "FAIR" INDICATES FEW OR NO CLOUDS BELOW 12000 FEET WITH NO
SIGNIFICANT WEATHER AND/OR OBSTRUCTIONS TO VISIBILITY.

* THESE STATIONS ARE NOT UNDER NWS QUALITY CONTROL. THEY DO NOT
   REPORT WEATHER SUCH AS PRECIPITATION OR FOG.

MTZ001>007-043-311800-
WEST OF THE DIVIDE
CITY           SKY/WX    TMP DP  RH WIND       PRES   REMARKS
KALISPELL      SUNNY     75  52  45 VRB5      30.15S
MISSOULA       SUNNY     77  46  33 CALM      30.18F
BUTTE          SUNNY     73  43  34 NE5       30.30F
MULLAN PASS    SUNNY     73  34  24 CALM      30.33R
* ESSEX        N/A       71  48  44 NE2        N/A
* LINCOLN      N/A       67  49  53 W3         N/A
* LOOKOUT PASS N/A       76  47  36 SE4        N/A
* POLSON       N/A       80  55  42 SE2        N/A   HI  80
* RONAN APT    SUNNY     75  54  48 N/A        N/A
* SEELEY LAKE  N/A       76  47  36 E3         N/A
* THOMP F APT  SUNNY     71  45  39 S3         N/A
* YAAK HILL    N/A       78  52  40 S2         N/A
$$

MTZ008-052>055-311800-
SOUTHWEST MONTANA
CITY           SKY/WX    TMP DP  RH WIND       PRES   REMARKS
BOZEMAN        SUNNY     75  48  39 VRB3      30.24F
DILLON         SUNNY     72  48  43 SW5       30.28F
W YELLOWSTONE  SUNNY     66  41  40 CALM      30.37F
* THREE FORKS  SUNNY     75  61  62 N/A        N/A
* BOULDER HILL N/A       72  46  40 S5         N/A
* MONIDA PASS  N/A       65  45  49 W4         N/A
* RAYNOLDS PAS N/A       69  44  41 SE6        N/A
* WHITEHALL    N/A       75  51  43 SW8        N/A
* WISE RIVER   N/A       65  47  52 NW3        N/A
$$

MTZ009>010-012-014-046-048-049-054-311800-
EAST SLOPES AND CENTRAL MONTANA
CITY           SKY/WX    TMP DP  RH WIND       PRES   REMARKS
CUT BANK       SUNNY     84  43  24 W8        30.13F
GREAT FALLS    SUNNY     82  45  27 SW9       30.14F
HELENA         PTCLDY    77  46  33 E5        30.19F
MALMSTROM AFB  SUNNY     81  45  28 W8        30.15F
* CONRAD       SUNNY     82  55  40 N/A        N/A   HI  81
* DEARBORN     N/A       81  46  29 S10        N/A
* EAST GLACIER N/A       81  44  27 SW3        N/A
* MONARCH      N/A       76  43  31 NW3G9      N/A
* ROGERS PASS  N/A       74  42  32 SE7G13     N/A
* SAINT MARY   N/A       77  55  47 N4         N/A
* SWEET GRASS  N/A       82  41  23 NW6G11     N/A
$$

MTZ011-013-016-021-035-040-045-047-050-051-311800-
NORTH CENTRAL MONTANA
CITY           SKY/WX    TMP DP  RH WIND       PRES   REMARKS
HAVRE          SUNNY     84  45  26 W8        30.05F
LEWISTOWN      PTCLDY    82  43  25 N7        30.17S
* CHESTER      N/A       81  43  26 W5         N/A
* DENTON       N/A       84  50  31 W1G9       N/A
* GEYSER       N/A       83  48  30 W13G19     N/A
* JUDITH GAP   N/A       80  48  33 VRB11G16    N/A
* LOMA         N/A       85  44  24 W8         N/A
$$

MTZ017>020-022>027-061-062-311800-
NORTHEAST MONTANA
CITY           SKY/WX    TMP DP  RH WIND       PRES   REMARKS
GLASGOW        SUNNY     88  46  23 S13       30.02F
GLENDIVE       PTSUNNY   81  52  37 S9        30.11F
JORDAN         PTCLDY    88  39  18 SW13      30.05F
SIDNEY         PTSUNNY   79  55  44 S5        30.08F
WOLF POINT     SUNNY     91  45  20 SW13      30.04F
* BEAVER HILL  N/A       81  49  33 S7         N/A
* CIRCLE       N/A       79  52  39 SE6G13     N/A
* LINDSAY DVD  N/A       75  51  43 S13        N/A
* NAVAJO       N/A       77  58  52 S7G12      N/A
$$

MTZ028>042-056>058-311800-
SOUTHCENTRAL AND SOUTHEAST MONTANA
CITY           SKY/WX    TMP DP  RH WIND       PRES   REMARKS
BAKER          PTCLDY    84  45  26 SW8       30.14F
BILLINGS       PTCLDY    81  45  28 SW10      30.15S
LIVINGSTON     SUNNY     82  43  25 W13       30.21F
MILES CITY     PTCLDY    86  45  24 S9G18     30.08F
* LAUREL APT   PTCLDY    81  43  26 S7         N/A
* ROUNDUP APT  PTCLDY    79  39  24 N/A        N/A
* ALZADA       N/A       79  47  32 SE4        N/A
* HYSHAM       N/A       82  43  25 W9         N/A
* LAME DEER    N/A       81  40  23 S8         N/A
* REED POINT   N/A       82  49  32 NE4        N/A
* ROSCOE HILL  N/A       79  40  25 NE1G6      N/A
$$

REGIONAL REPORTS...DAKOTAS
CITY           SKY/WX    TMP DP  RH WIND       PRES   REMARKS
WILLISTON      PTSUNNY   75  54  48 VRB3      30.08R
DICKINSON      PTCLDY    79  54  42 CALM      30.11R
CROSBY         SUNNY     75  59  58 S6        30.09F
TIOGA          SUNNY     75  59  58 S7        30.13S
WATFORD CITY   SUNNY     79  55  44 E5        30.07S
BISMARCK       SUNNY     81  57  44 VRB6      30.09S HI  81
FARGO          SUNNY     81  61  51 W9        30.04S HI  82
BUFFALO SD     PTCLDY    82  48  31 SW5       30.09S
RAPID CITY     SUNNY     81  52  37 N/A       30.19S
$$

REGIONAL REPORTS...WYOMING/IDAHO/WASHINGTON
CITY           SKY/WX    TMP DP  RH WIND       PRES   REMARKS
GILLETTE       SUNNY     81  45  28 SW8       30.22F
SHERIDAN       SUNNY     84  43  24 E5        30.18S
YELLOWSTONE LA SUNNY     61  46  58 E6        30.46F
SALMON         SUNNY     70  46  42 NW3       30.23F
MULLAN PASS    SUNNY     73  34  24 CALM      30.33S
SAND POINT     SUNNY     79  52  39 E3        30.08F
SPOKANE        SUNNY     84  45  26 SE5       30.07F

$$



USA.gov is the U.S. government's official web portal to all federal, state and local government web resources and services.